When you browse on this site, cookies collect data to enhance your experience and personalize the content and advertising you see.
Visit our Privacy Policy to learn more. By continuing to use the site, you agree to this use of cookies and data.
  • In France
  • List of Countries
  • For 7 days
  • Water Temperature
  • Satellite Maps
  • Weather Map
  • Weather Widgets
  • user-avatar
    Login

    Hourly Weather Djelfa

    Today, 27 June, Thursday

    Time Temperature Precipitation Wind Pressure Humidity
    00:00 +29°C° 0 mm 5 mps 669 mmHg 18%
    01:00 +28°C° 0 mm 4 mps 668 mmHg 18%
    02:00 +28°C° 0 mm 4 mps 668 mmHg 18%
    03:00 +27°C° 0 mm 4 mps 668 mmHg 18%
    04:00 +28°C° 0 mm 4 mps 668 mmHg 18%
    05:00 +28°C° 0 mm 4 mps 669 mmHg 17%
    06:00 +29°C° 0 mm 4 mps 669 mmHg 17%
    07:00 +32°C° 0 mm 4 mps 670 mmHg 16%
    08:00 +34°C° 0 mm 4 mps 670 mmHg 14%
    09:00 +36°C° 0 mm 4 mps 671 mmHg 12%
    10:00 +37°C° 0 mm 3 mps 670 mmHg 11%
    11:00 +38°C° 0 mm 3 mps 670 mmHg 10%
    12:00 +39°C° 0 mm 2 mps 670 mmHg 8%
    13:00 +39°C° 0 mm 3 mps 670 mmHg 8%
    14:00 +40°C° 0 mm 5 mps 669 mmHg 7%
    15:00 +41°C° 0 mm 6 mps 668 mmHg 7%
    16:00 +40°C° 0 mm 5 mps 668 mmHg 7%
    17:00 +39°C° 0 mm 5 mps 668 mmHg 8%
    18:00 +37°C° 0 mm 5 mps 667 mmHg 8%
    19:00 +35°C° 0 mm 5 mps 667 mmHg 11%
    20:00 +33°C° 0 mm 5 mps 667 mmHg 13%
    21:00 +29°C° 0 mm 6 mps 667 mmHg 16%
    22:00 +28°C° 0 mm 5 mps 667 mmHg 18%
    23:00 +27°C° 0 mm 4 mps 667 mmHg 20%

    Tomorrow, 28 June, Friday

    Time Temperature Precipitation Wind Pressure Humidity
    00:00 +25°C° 0 mm 3 mps 666 mmHg 22%
    01:00 +25°C° 0 mm 2 mps 666 mmHg 23%
    02:00 +24°C° 0 mm 2 mps 665 mmHg 25%
    03:00 +23°C° 0 mm 1 mps 665 mmHg 26%
    04:00 +24°C° 0 mm 1 mps 665 mmHg 27%
    05:00 +25°C° 0 mm 2 mps 666 mmHg 27%
    06:00 +26°C° 0 mm 2 mps 666 mmHg 27%
    07:00 +28°C° 0 mm 2 mps 667 mmHg 24%
    08:00 +29°C° 0 mm 2 mps 667 mmHg 22%
    09:00 +31°C° 0 mm 2 mps 668 mmHg 19%
    10:00 +34°C° 0 mm 2 mps 668 mmHg 16%
    11:00 +35°C° 0 mm 3 mps 668 mmHg 13%
    12:00 +37°C° 0 mm 3 mps 668 mmHg 10%
    13:00 +37°C° 0 mm 3 mps 668 mmHg 10%
    14:00 +37°C° 0 mm 4 mps 667 mmHg 9%
    15:00 +38°C° 0 mm 4 mps 667 mmHg 9%
    16:00 +37°C° 0 mm 4 mps 667 mmHg 9%
    17:00 +37°C° 0 mm 4 mps 667 mmHg 9%
    18:00 +36°C° 0 mm 5 mps 666 mmHg 9%
    19:00 +34°C° 0 mm 5 mps 666 mmHg 14%
    20:00 +30°C° 0 mm 5 mps 666 mmHg 19%
    21:00 +28°C° 0 mm 5 mps 666 mmHg 25%
    22:00 +27°C° 0 mm 5 mps 666 mmHg 26%
    23:00 +27°C° 0 mm 4 mps 666 mmHg 27%

    Day after tomorrow, 29 June, Saturday

    Time Temperature Precipitation Wind Pressure Humidity
    00:00 +26°C° 0 mm 4 mps 666 mmHg 29%
    01:00 +25°C° 0 mm 4 mps 666 mmHg 31%
    02:00 +25°C° 0 mm 3 mps 665 mmHg 33%
    03:00 +24°C° 0 mm 3 mps 665 mmHg 36%
    04:00 +25°C° 0 mm 3 mps 666 mmHg 34%
    05:00 +26°C° 0 mm 3 mps 666 mmHg 33%
    06:00 +27°C° 0 mm 3 mps 667 mmHg 31%
    07:00 +29°C° 0 mm 4 mps 667 mmHg 28%
    08:00 +32°C° 0 mm 5 mps 668 mmHg 25%
    09:00 +33°C° 0 mm 6 mps 669 mmHg 21%
    10:00 +34°C° 0 mm 5 mps 668 mmHg 19%
    11:00 +35°C° 0 mm 4 mps 668 mmHg 17%
    12:00 +36°C° 0 mm 3 mps 668 mmHg 15%
    13:00 +37°C° 0 mm 3 mps 668 mmHg 13%
    14:00 +38°C° 0 mm 3 mps 668 mmHg 12%
    15:00 +39°C° 0 mm 3 mps 668 mmHg 10%
    16:00 +40°C° 0 mm 4 mps 668 mmHg 10%
    17:00 +39°C° 0 mm 5 mps 668 mmHg 10%
    18:00 +39°C° 0 mm 6 mps 667 mmHg 9%
    19:00 +35°C° 0 mm 6 mps 667 mmHg 13%
    20:00 +33°C° 0 mm 7 mps 667 mmHg 16%
    21:00 +31°C° 0 mm 8 mps 667 mmHg 19%
    22:00 +29°C° 0 mm 8 mps 667 mmHg 21%
    23:00 +29°C° 0 mm 7 mps 667 mmHg 23%

    30 June, Sunday

    Time Temperature Precipitation Wind Pressure Humidity
    00:00 +28°C° 0 mm 7 mps 667 mmHg 25%
    01:00 +27°C° 0 mm 7 mps 667 mmHg 26%
    02:00 +27°C° 0 mm 7 mps 667 mmHg 27%
    03:00 +27°C° 0 mm 7 mps 666 mmHg 28%
    04:00 +27°C° 0 mm 5 mps 667 mmHg 27%
    05:00 +27°C° 0 mm 4 mps 667 mmHg 26%
    06:00 +27°C° 0 mm 3 mps 667 mmHg 26%
    07:00 +30°C° 0 mm 2 mps 668 mmHg 22%
    08:00 +32°C° 0 mm 2 mps 668 mmHg 18%
    09:00 +34°C° 0 mm 1 mps 669 mmHg 15%
    10:00 +36°C° 0 mm 2 mps 669 mmHg 13%
    11:00 +38°C° 0 mm 4 mps 669 mmHg 10%
    12:00 +40°C° 0 mm 5 mps 669 mmHg 8%
    13:00 +41°C° 0 mm 6 mps 669 mmHg 8%
    14:00 +41°C° 0 mm 7 mps 668 mmHg 8%
    15:00 +41°C° 0 mm 8 mps 668 mmHg 7%
    16:00 +40°C° 0 mm 8 mps 668 mmHg 8%
    17:00 +39°C° 0 mm 7 mps 668 mmHg 8%
    18:00 +38°C° 0 mm 7 mps 668 mmHg 8%
    19:00 +35°C° 0 mm 6 mps 668 mmHg 12%
    20:00 +33°C° 0 mm 5 mps 668 mmHg 16%
    21:00 +29°C° 0 mm 4 mps 668 mmHg 21%
    22:00 +28°C° 0 mm 4 mps 667 mmHg 23%
    23:00 +27°C° 0 mm 3 mps 666 mmHg 26%

    1 July, Monday

    Time Temperature Precipitation Wind Pressure Humidity
    00:00 +26°C° 0 mm 2 mps 666 mmHg 29%
    01:00 +25°C° 0 mm 2 mps 666 mmHg 30%
    02:00 +24°C° 0 mm 2 mps 665 mmHg 30%
    03:00 +24°C° 0 mm 3 mps 665 mmHg 31%
    04:00 +24°C° 0 mm 2 mps 665 mmHg 30%
    05:00 +25°C° 0 mm 2 mps 666 mmHg 30%
    06:00 +25°C° 0 mm 2 mps 667 mmHg 29%
    07:00 +27°C° 0 mm 2 mps 667 mmHg 26%
    08:00 +29°C° 0 mm 2 mps 668 mmHg 24%
    09:00 +31°C° 0 mm 2 mps 668 mmHg 22%
    10:00 +34°C° 0 mm 3 mps 668 mmHg 20%
    11:00 +35°C° 0 mm 3 mps 668 mmHg 18%
    12:00 +36°C° 0 mm 3 mps 668 mmHg 16%
    13:00 +37°C° 0 mm 3 mps 668 mmHg 15%
    14:00 +37°C° 0 mm 4 mps 668 mmHg 13%
    15:00 +38°C° 0 mm 4 mps 667 mmHg 12%
    16:00 +37°C° 0.1 mm 4 mps 667 mmHg 13%
    17:00 +36°C° 0.1 mm 4 mps 667 mmHg 15%
    18:00 +35°C° 0.1 mm 4 mps 666 mmHg 16%
    19:00 +33°C° 0.1 mm 4 mps 667 mmHg 19%
    20:00 +30°C° 0.1 mm 3 mps 667 mmHg 23%
    21:00 +28°C° 0.1 mm 3 mps 667 mmHg 26%
    22:00 +27°C° 0 mm 4 mps 667 mmHg 29%
    23:00 +26°C° 0 mm 6 mps 667 mmHg 33%

    2 July, Tuesday

    Time Temperature Precipitation Wind Pressure Humidity
    00:00 +24°C° 0 mm 7 mps 666 mmHg 37%
    01:00 +24°C° 0 mm 7 mps 666 mmHg 38%
    02:00 +24°C° 0 mm 7 mps 666 mmHg 39%
    03:00 +23°C° 0 mm 7 mps 665 mmHg 41%
    04:00 +23°C° 0 mm 7 mps 666 mmHg 40%
    05:00 +23°C° 0 mm 6 mps 666 mmHg 39%
    06:00 +24°C° 0 mm 6 mps 666 mmHg 38%
    07:00 +27°C° 0 mm 6 mps 667 mmHg 34%
    08:00 +29°C° 0 mm 6 mps 667 mmHg 30%
    09:00 +30°C° 0 mm 6 mps 667 mmHg 26%
    10:00 +33°C° 0 mm 6 mps 667 mmHg 24%
    11:00 +34°C° 0 mm 5 mps 667 mmHg 22%
    12:00 +35°C° 0 mm 5 mps 667 mmHg 20%
    13:00 +35°C° 0 mm 5 mps 667 mmHg 18%
    14:00 +36°C° 0 mm 5 mps 666 mmHg 17%
    15:00 +36°C° 0 mm 4 mps 666 mmHg 16%
    16:00 +32°C° 1.4 mm 5 mps 665 mmHg 27%
    17:00 +28°C° 1.4 mm 6 mps 665 mmHg 38%
    18:00 +23°C° 1.4 mm 7 mps 664 mmHg 50%
    19:00 +23°C° 0.1 mm 7 mps 664 mmHg 47%
    20:00 +23°C° 0.1 mm 6 mps 665 mmHg 45%
    21:00 +25°C° 0.1 mm 5 mps 666 mmHg 43%
    22:00 +25°C° 0 mm 5 mps 665 mmHg 40%
    23:00 +25°C° 0 mm 4 mps 665 mmHg 37%
    Show more